Regional Weather Roundup
Issued by NWS

Home | Current Version | Previous Version | Graphics & Text | Print | Product List | Glossary On
Versions: 1 2 3 4 5 6 7 8 9 10 11 12 13 14 15 16 17 18 19 20 21 22 23 24 25 26 27 28 29 30 31 32 33 34 35 36 37 38 39 40 41 42 43 44 45 46 47 48 49 50
774
ASUS45 KTFX 230710
RWRMT
MONTANA REGIONAL WEATHER ROUNDUP
NATIONAL WEATHER SERVICE GREAT FALLS MT
1200 AM MST TUE JAN 23 2018

NOTE: "FAIR" INDICATES FEW OR NO CLOUDS BELOW 12000 FEET WITH NO
SIGNIFICANT WEATHER AND/OR OBSTRUCTIONS TO VISIBILITY.

MTZ001>007-043-230800-
WEST OF THE DIVIDE

CITY           SKY/WX    TMP DP  RH WIND       PRES   REMARKS
KALISPELL      CLOUDY    31  29  92 SE7       30.18R WCI  24
MISSOULA       CLOUDY    28  26  92 CALM      30.23R
BUTTE          CLOUDY    13   8  81 NW3       30.14S
MULLAN PASS    FLURRIES  21  20  96 VRB3      30.12R
ANACONDA         N/A     27  16  63 SW8       30.16S WCI  18
DEER LODGE       N/A     21  19  93 CALM      30.18R
EUREKA           N/A     32  21  64 MISG      30.17R
HAMILTON         N/A     28  25  86 CALM      30.23S
PLAINS           N/A     30  26  85 CALM      30.23R VSB 0
RONAN            N/A     32  28  86 SE10      30.22S WCI  24
$$

MTZ008-052>055-230800-
SOUTHWEST MONTANA

CITY           SKY/WX    TMP DP  RH WIND       PRES   REMARKS
BOZEMAN        MOCLDY    16  11  80 SE8       30.18R WCI   5
DILLON         FAIR      15  13  91 SW16      30.17S WCI  -1
ENNIS          PTCLDY    19  12  73 S12G17    30.21S WCI   7
W YELLOWSTONE  FLURRIES   5   3  92 CALM      30.17S
THREE FORKS      N/A     19  16  88 CALM      30.14R
TWIN BRIDGES     N/A     22  13  68 CALM      30.15S
$$

MTZ009-010-012-014-046-048-049-054-230800-
EAST SLOPES AND CENTRAL MONTANA

CITY           SKY/WX    TMP DP  RH WIND       PRES   REMARKS
CUT BANK       FAIR      23  17  78 W10       30.03S WCI  12
GREAT FALLS    FAIR      27  18  69 SW15      30.07F WCI  15
MALMSTROM AFB  MOCLDY    26  19  75 S14       30.09S WCI  15
HELENA         MOCLDY    29  20  69 W8        30.16R WCI  21
AUGUSTA        FAIR      28  19  69 W17       30.06R WCI  16
BOWMANS CRNR   FAIR      24  19  81 S6        30.07R WCI  17
CHOTEAU          N/A     28  16  59 SW5       30.07S
CONRAD           N/A     20  14  77 S6        30.06S WCI  12
FAIRFIELD      FAIR      29  17  61 SW15      30.06S WCI  18
POWER          FAIR      24  16  73 SW9       30.06S WCI  14
RAYNESFORD     CLOUDY    33  16  50 SW10      30.08F WCI  25
ULM            FAIR      29  19  68 SW7       30.09S WCI  22
WHITE SULPHUR    N/A     25  18  74 S10       30.10S WCI  15
$$

MTZ011-013-016-021-045-047-050-051-230800-
NORTH CENTRAL MONTANA

CITY           SKY/WX    TMP DP  RH WIND       PRES   REMARKS
HAVRE          FAIR      27  21  78 SW15      30.04S WCI  15
LEWISTOWN      MOCLDY    30  19  63 SW20      30.07R WCI  17
N BAR RANCH    FAIR      30  10  43 NW23      30.04S WCI  17
CHINOOK          N/A     28  21  74 NW12      30.03S WCI  18
DENTON         FAIR      31  19  61 MISG      30.03S
GEYSER         MOCLDY    32  17  55 W20       30.05  WCI  20
GRASS RANGE    MOCLDY    28  17  63 W15       30.01S WCI  16
STANFORD       MOCLDY    31  17  55 W23       30.05S WCI  18
WINIFRED       MOCLDY    28  19  69 SW10      30.04S WCI  18
$$

MTZ017>020-022>027-061-062-230800-
NORTHEAST MONTANA

CITY           SKY/WX    TMP DP  RH WIND       PRES   REMARKS
GLASGOW        FAIR      14  11  87 SE5       30.01S
GLENDIVE       FAIR      18  15  88 CALM      30.03F
JORDAN           N/A     20  15  81 W12       30.05R WCI   8
MALTA          CLEAR     14  10  85 W12       30.04S WCI   0
SIDNEY         FAIR      17  14  88 S6        30.01F WCI   9
WOLF POINT     FAIR      10   6  84 SW7       30.03S WCI  -1
PLENTYWOOD       N/A     23  16  74 CALM      29.95S
POPLAR           N/A     14  10  85 W8        30.03S WCI   3
SCOBEY           N/A     14   5  67 CALM      29.96R
$$

MTZ028>42-056>058-230800-
SOUTHCENTRAL AND SOUTHEAST MONTANA

CITY           SKY/WX    TMP DP  RH WIND       PRES   REMARKS
BAKER          FAIR      26  21  81 W13       30.04S WCI  15
BILLINGS       FAIR      27  17  66 SW17      30.11S WCI  14
LIVINGSTON     CLOUDY    30  18  60 W12       30.13S WCI  20
MILES CITY     FAIR      19  18  95 W10       30.07R WCI   7
BIG TIMBER     CLEAR     28  18  64 W22G30    30.11F WCI  15
EKALAKA          N/A     30  19  63 SW8       30.01F WCI  22
FORSYTH          N/A     32  21  64 S5        30.07F
HARLOWTON      MOCLDY    26  19  73 NW17      30.09S WCI  13
LAUREL           N/A     23  16  74 W8        30.13S WCI  14
ROUNDUP          N/A     25  13  60 S9        29.98  WCI  16
$$

REGIONAL REPORTS...DAKOTAS

CITY           SKY/WX    TMP DP  RH WIND       PRES   REMARKS
WILLISTON      FAIR      22  17  81 SW9       29.98F WCI  12
MINOT          FAIR      14  11  87 S6        29.96F WCI   5
DICKINSON      FAIR      25  19  78 W9        29.97F WCI  15
BEACH          FAIR      25  21  86 W14       30.04S WCI  13
CROSBY         FAIR      23  18  80 W15       29.94S WCI  10
TIOGA          FAIR      18  18 100 W5        29.96S
WATFORD CITY   FAIR      21  18  86 SW7       29.98F WCI  13
BISMARCK       FOG       20  18  92 SW5       30.04F VSB 1
GRAND FORKS    CLOUDY    22  18  85 NE6       30.06F WCI  14
FARGO          CLOUDY    24  19  81 N8        30.04S WCI  15
BUFFALO SD       N/A     29  22  75 W8        29.97S WCI  21
RAPID CITY     CLOUDY    34  23  64 NW16      30.05R WCI  24
$$

REGIONAL REPORTS...WYOMING/IDAHO/WASHINGTON

CITY           SKY/WX    TMP DP  RH WIND       PRES   REMARKS
GILLETTE       CLOUDY    29  22  75 W10       30.10R WCI  20
SHERIDAN       CLOUDY    28  22  78 S8        30.10F WCI  20
BUFFALO WY     CLOUDY    29  19  66 N3        30.10S
CODY           FAIR      30  14  51 W17       30.11S WCI  18
YELLOWSTONE LA   N/A      6   3  87 CALM      30.16S
IDAHO FALLS    CLOUDY    26  25  96 NW9       30.28R WCI  17
SALMON         FLURRIES  23  21  92 CALM      30.29R
BOISE          FAIR      32  28  85 E8        30.33R WCI  25
SPOKANE        FAIR      31  30  96 S8        30.24R WCI  23
$$

REGIONAL REPORTS...ALBERTA

CITY           SKY/WX    TMP DP  RH WIND       PRES   REMARKS
CALGARY        PTCLDY    27  10  50 VRB2      29.96S
CARDSTON         N/A     30  16  55 W10         N/A  WCI  21
EDMONTON       CLEAR     18  14  86 SW7       29.95R WCI   8
FORT MCMURRAY  CLOUDY    10   7  85 E3        29.98S
HIGH LEVEL     CLOUDY     5   3  92 CALM      29.99S
LETHBRIDGE       N/A     34  19  55 MISG      30.01R
LLOYDMINSTER   LGT SNOW  19  18  93 W8        29.93  VSB 3/4 WCI   9
MEDICINE HAT   CLEAR     21  19  93 SW9       30.00S WCI  11
MILK RIVER       N/A     21  16  79 W8          N/A  WCI  12
PEACE RIVER    FOG       21  19  93 S5        29.92R VSB 1/2
PINCHER CREEK  CLEAR     30  18  59 W17G26    30.03R WCI  18
WATERTON GATE    N/A     30  16  55 SW8         N/A  WCI  23
$$

REGIONAL REPORTS...SASKATCHEWAN

CITY           SKY/WX    TMP DP  RH WIND       PRES   REMARKS
CORONACH         N/A     18  16  93 SE2         N/A
CYPRESS HILLS    N/A     27  12  54 W7          N/A  WCI  19
ESTEVAN        PTCLDY    12   9  85 SW9       29.93R WCI   0
MOOSE JAW        N/A     19  16  86 NW10        N/A  WCI   8
PRINCE ALBERT  FLURRIES   9   5  85 CALM      29.96S
REGINA         CLEAR     18  16  93 W12       29.93R WCI   5
ROCKGLEN         N/A     25  19  80 NW10        N/A  WCI  15
SASKATOON      CLOUDY    21  19  93 W7        29.97R WCI  13
SWIFT CURRENT  CLEAR     23  18  80 W13       29.94S WCI  11
VAL MARIE        N/A     19  14  79 NW8         N/A  WCI   9
$$




USA.gov is the U.S. government's official web portal to all federal, state and local government web resources and services.